Regional Weather Roundup
Issued by NWS

Home | Current Version | Previous Version | Graphics & Text | Print | Product List | Glossary On
Versions: 1 2 3 4 5 6 7 8 9 10 11 12 13 14 15 16 17 18 19 20 21 22 23 24 25 26 27 28 29 30 31 32 33 34 35 36 37 38 39 40 41 42 43 44 45 46 47 48 49 50
000
ASUS45 KPSR 102110
RWRAZ

ARIZONA REGIONAL HOURLY WEATHER ROUNDUP
NATIONAL WEATHER SERVICE PHOENIX AZ
200 PM MST THU JUL 10 2014

NOTE: FAIR INDICATES FEW OR NO CLOUDS BELOW 12,000 FEET WITH NO
SIGNIFICANT WEATHER AND/OR OBSTRUCTIONS TO VISIBILITY.

AZZ001>003-036-102200-
NORTHWEST ARIZONA

CITY           SKY/WX    TMP DP  RH WIND       PRES   REMARKS
BULLHEAD CITY  FAIR      99 N/A N/A S10       29.80F
KINGMAN        PTSUNNY   82  63  52 E12       30.00F
$$

AZZ004>008-015-016-018-102200-
NORTH CENTRAL ARIZONA

CITY           SKY/WX    TMP DP  RH WIND       PRES   REMARKS
GRAND CANYON   FAIR      65  61  87 SW7       30.21S
WILLIAMS         N/A     68  55  64 S8        30.28F
PRESCOTT       PTSUNNY   81  56  42 W6        30.10F
FLAGSTAFF      FAIR      76  53  44 SW15      30.22F
PAYSON         FAIR      84  54  34 VRB5G12   30.12F
PAGE           FAIR      91  50  24 VRB6      29.97F
$$

AZZ009>014-017-102200-
NORTHEAST ARIZONA

CITY           SKY/WX    TMP DP  RH WIND       PRES   REMARKS
WINSLOW        FAIR      91  48  22 S13       30.03F
SAINT JOHNS    FAIR      90  47  22 SW12      30.09F
WINDOW ROCK    PTSUNNY   87  45  23 SW14G20   30.18F
SHOW LOW       PTSUNNY   81  46  30 W7G17     30.18F
$$

AZZ023-102200-
GREATER PHOENIX AREA

CITY           SKY/WX    TMP DP  RH WIND       PRES   REMARKS
PHOENIX        FAIR     100  59  25 SW6G17    29.81F HX 100
BUCKEYE          N/A     99  61  28 SW7       29.82F
GLENDALE       MOSUNNY  100  61  27 S9G17     29.83F HX 101
LUKE AFB       NOT AVBL
DEER VALLEY    FAIR      98  58  26 W15       29.83F
SCOTTSDALE     FAIR      98  58  26 SW8       29.85F
MESA-FALCON    MOSUNNY   99  59  26 SW9       29.83F
MESA-GATEWAY   MOSUNNY  N/A N/A N/A W6        29.86F
CHANDLER       MOSUNNY   99  59  26 VRB6      29.83F
$$

AZZ027-028-102200-
SOUTHWEST MARICOPA COUNTY AND PINAL COUNTY

CITY           SKY/WX    TMP DP  RH WIND       PRES   REMARKS
CASA GRANDE    FAIR      97  61  30 SW7       29.86F
GILA BEND      PTCLDY   102  59  24 W3G17     29.83F HX 102
$$

AZZ503-504-507>509-102200-
SOUTHEAST ARIZONA

CITY           SKY/WX    TMP DP  RH WIND       PRES   REMARKS
TUCSON         FAIR      95  56  26 E3        29.93F
DAVIS-MONTHAN  FAIR      93  55  28 W7        29.93F
RYAN FIELD       N/A     95  57  28 W5        29.92F
NOGALES        FAIR      89  54  30 N5        30.02F
SIERRA VISTA   MOSUNNY   90  52  27 SW7       30.07F
DOUGLAS        FAIR      90  54  29 NW9       30.01F
SAFFORD        FAIR      97  50  20 S6        29.89F
$$

AZZ020-021-025-026-031-102200-
SOUTHWEST ARIZONA

CITY           SKY/WX    TMP DP  RH WIND       PRES   REMARKS
YUMA           FAIR     103  47  15 W5        29.77F
$$

CAZ031-033-041-043-047-048-061-102200-
SOUTHERN CALIFORNIA

CITY           SKY/WX    TMP DP  RH WIND       PRES   REMARKS
DOWNTOWN L.A.  FAIR      80  61  52 W8        29.91S
L.A. AIRPORT   FAIR      75  61  61 W13       29.93F
SAN DIEGO      FAIR      77  60  55 W9        29.93F
BURBANK        FAIR      84  57  39 S8        29.90F
ONTARIO        FAIR      89  53  29 W12       29.90F
RIVERSIDE      FAIR      90  56  31 VRB7      29.90F
PALM SPRINGS   FAIR     104  44  13 MISG      29.78F
EL CENTRO NAS  FAIR     104  47  14 SE8       29.74F HX 100
IMPERIAL       FAIR     102  47  15 VRB7      29.74F
BLYTHE         FAIR     103  57  21 SE18G25   29.76F HX 102
NEEDLES        FAIR      98  55  23 SW15      29.81F
$$

NVZ020-UTZ003-102200-
SOUTHERN NEVADA-UTAH

CITY           SKY/WX    TMP DP  RH WIND       PRES   REMARKS
LAS VEGAS      PTSUNNY   91  55  29 E7        29.85F
SALT LAKE CITY FAIR      90  51  26 N7        29.94F
$$

NMZ009-TXZ055-102200-
NEW MEXICO-WEST TEXAS

CITY           SKY/WX    TMP DP  RH WIND       PRES   REMARKS
ALBUQUERQUE    MOSUNNY   89  48  24 CALM      30.08F
EL PASO        PTSUNNY   95  50  21 N5        29.97F
$$


........................KEY........................
SKY/WX - SKY CONDITION/WEATHER
TMP    - TEMPERATURE IN FAHRENHEIT
DP     - DEW POINT IN FAHRENHEIT
RH     - RELATIVE HUMIDITY IN PERCENT
WIND   - DIRECTION AND SPEED IN MILES PER HOUR (MPH)
VRB    - VARIABLE WIND DIRECTION
PRES   - MEAN SEA LEVEL PRESSURE IN INCHES OF MERCURY
         F - FALLING PRESSURE   R - RISING PRESSURE
         S - STEADY PRESSURE
VSB    - VISIBILITY IN MILES
HX     - HEAT INDEX IN FAHRENHEIT
WCI    - WIND CHILL INDEX IN FAHRENHEIT
TC     - TEMPERATURE IN CELSIUS WHICH IS ALSO KNOWN AS
         TEMPERATURE IN CENTIGRADE
AFB    - AIR FORCE BASE
         LUKE AFB IS LUKE AIR FORCE BASE
         DAVIS-MONTHAN IS DAVIS-MONTHAN AIR FORCE BASE
NAS    - NAVAL AIR STATION
         EL CENTRO NAS IS EL CENTRO NAVAL AIR STATION
N/A    - NOT AVAILABLE



USA.gov is the U.S. government's official web portal to all federal, state and local government web resources and services.